Home   Weather   Hungary   Kecskemét   Past weeks
Flag for Hungary

Past Weather in Kecskemét, Hungary — Yesterday and Last 2 Weeks

Currently: 52 °F. Clear. (Weather station: Kecskemet Airport, Hungary). See more current weather

Past Weather in Kecskemét — Graph

°F

Kecskemét Temperature Yesterday

Maximum temperature yesterday: 55 °F (at 12:45 pm)
Minimum temperature yesterday: 48 °F (at 3:45 am)
Average temperature yesterday: 51 °F

High & Low Weather Summary for the Past Weeks

 TemperatureHumidityPressure
High66 °F (Feb 10, 1:15 pm)100% (Feb 11, 11:15 pm)30.51 "Hg (Feb 11, 11:15 pm)
Low27 °F (Feb 17, 5:45 am)38% (Feb 16, 2:45 pm)29.36 "Hg (Feb 11, 4:45 am)
Average47 °F73%29.98 "Hg
* Reported Feb 8 11:15 pm — Feb 23 11:15 pm, Kecskemét. Weather by CustomWeather, © 2024

Note: Actual official high and low records may vary slightly from our data, if they occured in-between our weather recording intervals... More about our weather records

Kecskemét Weather History for the Previous 24 Hours

Scroll right to see more
 ConditionsComfort  
Time TempWeatherWind HumidityBarometerVisibility
11:15 pm
Fri, Feb 23
52 °FClear.7 mph72%29.65 "Hg10 mi
10:45 pm52 °FClear.8 mph72%29.65 "Hg10 mi
10:15 pm52 °FClear.10 mph67%29.65 "Hg10 mi
9:15 pm52 °FClear.10 mph67%29.65 "Hg10 mi
8:45 pm52 °FClear.10 mph72%29.65 "Hg10 mi
8:15 pm52 °FClear.12 mph72%29.65 "Hg10 mi
7:45 pm52 °FClear.12 mph72%29.65 "Hg10 mi
7:15 pm52 °FClear.10 mph72%29.68 "Hg10 mi
6:45 pm52 °FClear.10 mph72%29.68 "Hg10 mi
6:15 pm52 °FPassing clouds.12 mph72%29.68 "HgN/A
5:45 pm52 °FClear.10 mph72%29.68 "Hg10 mi
5:15 pm52 °FSunny.10 mph77%29.68 "Hg10 mi
4:45 pm52 °FSunny.8 mph77%29.68 "Hg10 mi
4:15 pm52 °FSunny.8 mph77%29.68 "Hg10 mi
3:45 pm54 °FLight rain. Clear.8 mph72%29.68 "HgN/A
3:15 pm54 °FLight rain. Clear.5 mph72%29.71 "HgN/A
2:45 pm54 °FSunny.6 mph72%29.71 "Hg10 mi
2:15 pm54 °FSunny.7 mph72%29.68 "Hg10 mi
1:45 pm54 °FPassing clouds.7 mph72%29.71 "HgN/A
1:15 pm54 °FPassing clouds.7 mph72%29.71 "HgN/A
12:45 pm55 °FPassing clouds.8 mph67%29.71 "HgN/A
12:15 pm54 °FLight rain. Clear.9 mph72%29.71 "HgN/A
11:58 am54 °FLight rain. Clear.9 mph72%29.71 "HgN/A
11:15 am54 °FPassing clouds.9 mph72%29.71 "HgN/A
10:45 am52 °FPassing clouds.8 mph77%29.71 "HgN/A
10:36 am50 °FPassing clouds.7 mph82%29.71 "HgN/A
9:45 am50 °FLight rain. Clear.12 mph82%29.71 "HgN/A
9:15 am48 °FLight rain. Clear.10 mph87%29.71 "HgN/A
8:45 am48 °FLight rain. Mostly cloudy.10 mph87%29.71 "HgN/A
8:15 am48 °FLight rain. Mostly cloudy.10 mph87%29.71 "HgN/A
7:45 am48 °FLight rain. Clear.12 mph82%29.68 "HgN/A
7:15 am48 °FLight rain. Clear.12 mph82%29.68 "HgN/A
6:45 am48 °FLight rain. Clear.12 mph82%29.68 "HgN/A
6:15 am48 °FLight rain. Clear.14 mph82%29.68 "HgN/A
5:45 am48 °FLight rain. Clear.15 mph82%29.68 "HgN/A
5:15 am48 °FLight rain. Overcast.10 mph76%29.68 "HgN/A
4:45 am48 °FLight rain. Overcast.10 mph76%29.68 "HgN/A
4:15 am50 °FLight rain. Clear.9 mph67%29.68 "HgN/A
3:45 am48 °FLight rain. Clear.9 mph76%29.68 "HgN/A
3:15 am50 °FLight rain. Clear.9 mph71%29.68 "HgN/A
2:45 am52 °FLight rain. Clear.16 mph62%29.68 "HgN/A
2:15 am54 °FLight rain. Clear.14 mph47%29.68 "HgN/A
1:45 am54 °FPassing clouds.12 mph47%29.68 "HgN/A
12:15 am54 °FClear.14 mph47%29.68 "Hg10 mi
Weather by CustomWeather, © 2024

See weather overview